Date String (YYYY-MM-DD hh:mm:ss) UTC,Instrument flags,Ambient pressure (hPa),Sample flow (lpm),Bypass flow (lpm),Sample temperature (°C),Ambient temperature (°C),ASC tube jacket temperature (°C),LED temperature (°C),Box temperature (°C),Sample RH (%),Span deviation,Mass concentration (μg/m³),Mass concentration (μg/m³),Mass concentration (μg/m³)
DateTimeUTC,F1_M11,P_M11,Q1_M11,Q2_M11,T1_M11,T2_M11,T3_M11,T4_M11,T5_M11,U1_M11,ZSPAN_M11,X0_M11,X2_M11,X1_M11
2022-08-04 01:00:00,,0828.5,5.00,0.00,29.6,28.5,00.0,38.2,31.6,30.9,0000.0,0012.03,0006.58,0005.79
2022-08-04 01:01:00,,0828.5,4.99,0.00,29.6,28.2,00.0,38.2,31.5,30.8,0000.0,0011.96,0006.58,0005.79
2022-08-04 01:02:00,,0828.5,5.01,0.00,29.5,27.5,00.0,38.2,31.3,30.8,0000.0,0011.39,0006.52,0005.79
2022-08-04 01:03:00,,0828.4,5.00,0.00,29.5,27.1,00.0,38.2,31.3,30.6,0000.0,0011.23,0006.45,0005.76
2022-08-04 01:04:00,,0828.4,5.00,0.00,29.4,27.2,00.0,38.2,31.2,30.6,0000.0,0011.85,0006.47,0005.74
2022-08-04 01:05:00,,0828.5,4.99,0.00,29.4,27.3,00.0,38.2,31.2,30.7,0000.0,0012.18,0006.45,0005.71
2022-08-04 01:06:00,,0828.5,5.00,0.00,29.4,27.5,00.0,38.1,31.2,30.7,0000.0,0011.99,0006.41,0005.69
2022-08-04 01:07:00,,0828.5,5.01,0.00,29.4,27.7,00.0,38.1,31.3,30.7,0000.0,0012.00,0006.35,0005.66
2022-08-04 01:08:00,,0828.5,5.00,0.00,29.4,27.9,00.0,38.2,31.3,30.6,0000.0,0012.03,0006.34,0005.64
2022-08-04 01:09:00,,0828.5,4.99,0.00,29.4,28.1,00.0,38.2,31.4,30.7,0000.0,0011.98,0006.34,0005.63
2022-08-04 01:10:00,,0828.5,5.00,0.00,29.5,28.2,00.0,38.2,31.4,30.6,0000.0,0012.10,0006.36,0005.64
2022-08-04 01:11:00,,0828.5,4.99,0.00,29.5,28.4,00.0,38.2,31.5,30.5,0000.0,0011.81,0006.36,0005.66
2022-08-04 01:12:00,,0828.6,5.00,0.00,29.6,28.5,00.0,38.2,31.6,30.0,0000.0,0011.66,0006.37,0005.65
2022-08-04 01:13:00,,0828.9,5.00,0.00,29.6,28.0,00.0,38.2,31.4,30.1,0000.0,0011.87,0006.35,0005.64
2022-08-04 01:14:00,,0828.8,5.02,0.00,29.5,27.3,00.0,38.2,31.3,30.3,0000.0,0012.25,0006.35,0005.64
2022-08-04 01:15:00,,0829.0,4.99,0.00,29.5,27.1,00.0,38.2,31.3,30.2,0000.0,0012.23,0006.33,0005.65
2022-08-04 01:16:00,,0828.9,5.00,0.00,29.4,27.1,00.0,38.2,31.1,30.5,0000.0,0012.02,0006.31,0005.65
2022-08-04 01:17:00,,0829.1,5.01,0.00,29.3,27.3,00.0,38.1,31.1,32.0,0000.0,0012.56,0006.33,0005.66
2022-08-04 01:18:00,,0828.9,4.99,0.00,29.3,27.5,00.0,38.1,31.2,33.1,0000.0,0013.14,0006.36,0005.67
2022-08-04 01:19:00,,0829.1,5.01,0.00,29.4,27.7,00.0,38.1,31.2,33.4,0000.0,0012.90,0006.38,0005.69
2022-08-04 01:20:00,,0829.1,4.99,0.00,29.4,27.9,00.0,38.2,31.3,32.5,0000.0,0012.78,0006.37,0005.69
2022-08-04 01:21:00,,0829.0,5.00,0.00,29.4,28.1,00.0,38.2,31.4,32.1,0000.0,0012.55,0006.34,0005.68
2022-08-04 01:22:00,,0829.0,5.00,0.00,29.5,28.3,00.0,38.2,31.5,31.6,0000.0,0012.82,0006.35,0005.68
2022-08-04 01:23:00,,0829.0,5.00,0.00,29.5,28.4,00.0,38.2,31.5,31.1,0000.0,0012.74,0006.37,0005.69
2022-08-04 01:24:00,,0828.9,5.00,0.00,29.5,28.4,00.0,38.2,31.5,31.0,0000.0,0012.50,0006.36,0005.69
2022-08-04 01:25:00,,0829.1,5.01,0.00,29.5,27.8,00.0,38.2,31.4,30.9,0000.0,0012.40,0006.39,0005.71
2022-08-04 01:26:00,,0828.7,4.99,0.00,29.5,27.3,00.0,38.2,31.3,30.9,0000.0,0012.70,0006.39,0005.72
2022-08-04 01:27:00,,0828.8,5.01,0.00,29.4,27.1,00.0,38.2,31.2,30.5,0000.0,0013.16,0006.41,0005.73
2022-08-04 01:28:00,,0828.8,5.00,0.00,29.3,27.2,00.0,38.2,31.1,30.5,0000.0,0013.14,0006.43,0005.75
2022-08-04 01:29:00,,0828.7,5.00,0.00,29.3,27.3,00.0,38.1,31.1,30.1,0000.0,0012.56,0006.41,0005.75
2022-08-04 01:30:00,,0828.8,5.00,0.00,29.3,27.5,00.0,38.1,31.2,30.6,0000.0,0011.99,0006.37,0005.76
2022-08-04 01:31:00,,0828.8,5.00,0.00,29.4,27.7,00.0,38.1,31.3,30.4,0000.0,0012.03,0006.40,0005.76
2022-08-04 01:32:00,,0829.2,4.99,0.00,29.4,27.9,00.0,38.1,31.4,30.5,0000.0,0012.21,0006.43,0005.77
2022-08-04 01:33:00,,0829.2,5.00,0.00,29.4,28.1,00.0,38.2,31.4,31.1,0000.0,0012.21,0006.43,0005.77
2022-08-04 01:34:00,,0829.3,5.00,0.00,29.5,28.3,00.0,38.2,31.5,31.3,0000.0,0012.03,0006.43,0005.78
2022-08-04 01:35:00,,0829.0,5.00,0.00,29.5,28.4,00.0,38.2,31.5,31.4,0000.1,0012.37,0006.46,0005.79
2022-08-04 01:36:00,,0828.7,5.00,0.00,29.6,28.5,00.0,38.2,31.6,31.4,0000.4,0012.87,0006.50,0005.81
2022-08-04 01:37:00,,0828.7,5.00,0.00,29.5,28.0,00.0,38.2,31.4,31.7,0000.0,0012.60,0006.52,0005.81
2022-08-04 01:38:00,,0828.8,5.00,0.00,29.5,27.3,00.0,38.2,31.3,33.0,0000.0,0012.52,0006.54,0005.83
2022-08-04 01:39:00,,0828.7,5.01,0.00,29.5,27.1,00.0,38.2,31.2,34.0,0000.0,0013.36,0006.61,0005.88
2022-08-04 01:40:00,,0828.8,4.99,0.00,29.4,27.1,00.0,38.2,31.1,34.7,0000.0,0015.03,0006.74,0005.94
2022-08-04 01:41:00,,0828.8,5.02,0.00,29.4,27.3,00.0,38.2,31.2,35.2,0000.0,0016.44,0006.90,0006.03
2022-08-04 01:42:00,,0829.3,5.00,0.00,29.6,27.5,00.0,38.1,31.4,35.1,0000.0,0016.81,0006.98,0006.10
2022-08-04 01:43:00,,0828.8,4.99,0.00,29.9,27.7,00.0,38.1,31.5,34.5,0000.5,0016.84,0007.05,0006.17
2022-08-04 01:44:00,,0828.8,5.00,0.00,30.1,27.9,00.0,38.2,31.6,34.3,0000.5,0017.39,0007.10,0006.23
2022-08-04 01:45:00,,0828.8,5.01,0.00,30.2,28.1,00.0,38.2,31.6,34.1,0000.0,0017.78,0007.16,0006.28
2022-08-04 01:46:00,,0828.9,5.00,0.00,30.2,28.2,00.0,38.3,31.7,33.9,0000.0,0017.83,0007.20,0006.34
2022-08-04 01:47:00,,0828.8,5.00,0.00,30.3,28.4,00.0,38.4,31.7,33.8,0000.0,0017.89,0007.33,0006.43
2022-08-04 01:48:00,,0828.8,5.00,0.00,30.3,28.4,00.0,38.4,31.7,33.8,0000.0,0017.66,0007.50,0006.54
2022-08-04 01:49:00,,0828.9,5.00,0.00,30.3,27.8,00.0,38.5,31.6,33.9,0000.0,0017.28,0007.65,0006.63
2022-08-04 01:50:00,,0829.0,5.01,0.00,30.2,27.2,00.0,38.5,31.4,34.0,0000.1,0016.53,0007.67,0006.67
2022-08-04 01:51:00,,0829.2,5.01,0.00,30.2,27.1,00.0,38.5,31.4,34.3,0000.6,0015.24,0007.70,0006.70
2022-08-04 01:52:00,,0829.0,4.99,0.00,30.0,27.2,00.0,38.5,31.2,34.9,0000.0,0014.38,0007.68,0006.70
2022-08-04 01:53:00,,0829.4,5.02,0.00,30.0,27.4,00.0,38.5,31.3,35.2,0000.0,0014.35,0007.71,0006.71
2022-08-04 01:54:00,,0829.2,5.00,0.00,30.2,27.5,00.0,38.5,31.4,35.2,0000.0,0014.51,0007.75,0006.73
2022-08-04 01:55:00,,0828.9,5.00,0.00,30.5,27.7,00.0,38.5,31.7,34.7,0001.0,0014.25,0007.82,0006.76
2022-08-04 01:56:00,,0828.9,5.01,0.00,30.7,27.9,00.0,38.5,31.8,34.1,0001.3,0014.48,0007.85,0006.77
2022-08-04 01:57:00,,0828.9,5.00,0.00,30.8,28.1,00.0,38.6,31.8,33.4,0001.6,0014.29,0007.89,0006.77
2022-08-04 01:58:00,,0829.0,4.98,0.00,30.8,28.3,00.0,38.7,31.9,32.8,0000.2,0014.46,0007.88,0006.77
2022-08-04 01:59:00,,0828.9,5.00,0.00,30.9,28.4,00.0,38.7,31.9,33.5,0000.0,0014.29,0007.81,0006.75
